Latest Weather Observations for Argyle

IDW60801

Issued at 5:42 pm WST Monday 22 December 2014 (issued every 30 minutes, with the page automatically refreshed every 10 minutes)

About weather observations | Map of weather stations | Latest weather observations for WA | Other Formats
Station Details ID: 002064 Name: ARGYLE AERODROME Lat: -16.64 Lon: 128.45 Height: 164.0 m
Data from the previous 72 hours. | See also: Recent months at Argyle
Date/Time
WST
Temp
°C
App
Temp
°C
Dew
Point
Rel
Hum
%
Delta-T
°C
Wind Press
QNH
hPa
Press
MSL
hPa
Rain
since 9 am
mm
Dir
 
Spd
km/h
Gust
km/h
Spd
kts
Gust
kts
22/05:30pm 28.1 30.8 22.2 70 4.0 W 11 13 6 7 1007.6 - 0.0
22/05:00pm 28.4 30.5 21.7 67 4.5 W 13 22 7 12 1007.3 - 0.0
22/04:30pm 28.4 29.6 22.1 68 4.3 WNW 19 26 10 14 1007.5 - 0.0
22/04:00pm 28.2 28.1 20.7 63 5.0 NNW 22 32 12 17 1007.1 - 0.0
22/03:42pm 28.9 28.6 22.5 68 4.4 N 28 43 15 23 1007.0 - 0.0
22/03:30pm 29.5 32.0 22.5 66 4.8 SW 13 22 7 12 1006.2 - 0.0
22/03:00pm 30.8 33.6 22.3 60 5.8 SE 11 15 6 8 1005.7 1004.3 0.0
22/02:30pm 30.9 34.5 22.1 59 6.0 E 6 11 3 6 1006.7 - 0.0
22/02:00pm 30.8 34.0 22.3 60 5.8 N 9 15 5 8 1006.7 - 0.0
22/01:30pm 29.6 30.0 22.4 65 4.9 NNE 24 33 13 18 1006.7 - 0.0
22/01:16pm 29.8 29.3 22.2 63 5.2 NNE 28 46 15 25 1006.7 - 0.0
22/01:06pm 31.8 28.6 20.3 50 7.7 NNE 37 46 20 25 1006.8 - 0.0
22/01:00pm 34.9 35.9 21.8 46 9.0 NNE 19 28 10 15 1006.8 - 0.0
22/12:49pm 32.9 31.4 20.2 47 8.5 N 28 41 15 22 1006.8 - 0.0
22/12:30pm 35.4 38.0 21.9 45 9.3 WNW 11 20 6 11 1007.3 - 0.0
22/12:00pm 35.3 37.8 22.5 47 8.9 WNW 13 22 7 12 1007.9 1006.5 0.0
22/11:30am 33.7 36.8 22.9 53 7.5 NW 11 30 6 16 1008.7 - 0.0
22/11:00am 33.1 37.0 23.0 55 7.0 WNW 7 15 4 8 1009.2 - 0.0
22/10:30am 32.0 36.0 23.1 59 6.2 S 7 13 4 7 1009.6 - 0.0
22/10:00am 30.8 34.9 23.0 63 5.4 W 6 11 3 6 1010.0 - 0.0
22/09:30am 29.8 34.3 22.3 64 5.1 NNW 2 7 1 4 1010.3 - 0.0
22/09:00am 29.3 34.4 22.7 67 4.5 CALM 0 0 0 0 1010.5 1009.1 4.6
22/08:30am 28.6 33.2 22.4 69 4.2 WNW 2 6 1 3 1010.5 - 4.6
22/08:00am 28.3 32.3 22.7 71 3.8 WSW 6 9 3 5 1010.7 - 4.6
22/07:30am 27.9 31.5 23.1 75 3.3 WSW 9 11 5 6 1010.6 - 4.6
22/07:00am 27.6 31.5 22.9 75 3.2 W 7 11 4 6 1010.3 - 4.6
22/06:30am 27.3 31.7 23.8 81 2.4 W 7 9 4 5 1009.8 - 4.6
22/06:00am 26.6 31.1 23.9 85 1.9 NW 7 9 4 5 1009.7 1008.3 4.6
22/05:30am 26.3 30.7 23.8 86 1.7 NW 7 9 4 5 1009.1 - 4.6
22/05:00am 26.1 30.6 23.9 88 1.5 NW 7 7 4 4 1008.9 - 4.6
22/04:30am 25.9 30.4 24.0 89 1.3 WNW 7 9 4 5 1008.5 - 4.6
22/04:00am 25.9 30.2 24.2 90 1.2 NW 9 11 5 6 1008.6 - 4.6
22/03:30am 25.8 29.9 23.3 86 1.7 WNW 7 9 4 5 1008.2 - 4.6
22/03:00am 25.8 30.4 23.8 89 1.4 N 6 9 3 5 1008.1 1006.7 4.6
22/02:30am 25.7 30.5 23.5 88 1.5 E 4 7 2 4 1008.3 - 4.6
22/02:00am 25.7 30.1 23.4 87 1.6 E 6 7 3 4 1008.5 - 4.6
22/01:30am 25.5 29.8 23.6 89 1.3 ESE 7 11 4 6 1008.6 - 4.6
22/01:00am 25.6 29.2 23.7 89 1.3 E 11 15 6 8 1008.5 - 4.6
22/12:30am 25.7 29.3 23.8 89 1.3 E 11 17 6 9 1008.9 - 4.6
22/12:00am 26.1 30.7 24.7 92 1.0 ESE 9 13 5 7 1008.9 1007.5 4.6
 
Date/Time
WST
Temp
°C
App
Temp
°C
Dew
Point
Rel
Hum
%
Delta-T
°C
Wind Press
QNH
hPa
Press
MSL
hPa
Rain
since 9 am
mm
Dir
 
Spd
km/h
Gust
km/h
Spd
kts
Gust
kts
21/11:30pm 26.3 32.6 24.7 91 1.1 CALM 0 0 0 0 1009.1 - 4.6
21/11:00pm 26.6 33.0 24.9 90 1.2 CALM 0 0 0 0 1009.5 - 4.6
21/10:30pm 26.5 31.4 24.3 88 1.5 ENE 6 7 3 4 1009.8 - 4.6
21/10:00pm 26.4 31.5 24.7 90 1.2 NNE 6 7 3 4 1010.0 - 4.6
21/09:30pm 26.3 31.4 24.7 91 1.1 NNE 6 7 3 4 1010.2 - 4.6
21/09:00pm 26.5 32.1 24.8 90 1.2 ESE 4 7 2 4 1010.2 1008.8 4.6
21/08:30pm 26.7 32.0 25.0 90 1.2 S 6 7 3 4 1010.0 - 4.6
21/08:00pm 26.8 31.2 23.8 83 2.1 SSW 7 9 4 5 1010.0 - 4.6
21/07:30pm 26.9 31.3 24.5 87 1.7 WSW 9 11 5 6 1010.0 - 4.4
21/07:00pm 27.3 31.5 23.2 78 2.8 SSE 6 9 3 5 1009.7 - 4.0
21/06:30pm 27.4 29.6 23.2 78 2.9 SSE 17 24 9 13 1009.1 - 4.0
21/06:00pm 28.2 31.3 23.6 76 3.2 SSE 13 20 7 11 1008.1 1006.7 4.0
21/05:30pm 27.9 30.9 23.3 76 3.2 SSW 13 20 7 11 1007.9 - 4.0
21/05:00pm 27.9 30.8 23.1 75 3.3 SW 13 15 7 8 1007.4 - 4.0
21/04:30pm 27.8 30.1 22.8 74 3.4 N 15 20 8 11 1007.7 - 4.0
21/04:00pm 28.5 30.0 23.7 75 3.3 NE 22 32 12 17 1007.6 - 4.0
21/03:30pm 29.2 33.1 23.6 72 3.9 SSE 9 17 5 9 1007.2 - 4.0
21/03:00pm 30.0 34.0 23.8 69 4.3 SE 9 13 5 7 1007.0 1005.6 4.0
21/02:30pm 30.0 34.0 23.7 69 4.4 SSW 9 13 5 7 1006.5 - 4.0
21/02:00pm 29.6 32.1 23.2 68 4.4 W 15 19 8 10 1005.7 - 4.0
21/01:30pm 27.7 31.1 24.0 80 2.6 W 13 19 7 10 1007.2 - 4.0
21/01:00pm 27.4 31.5 23.3 78 2.8 NNW 7 13 4 7 1006.8 - 4.0
21/12:47pm 26.7 29.4 22.9 79 2.6 N 13 15 7 8 1007.4 - 3.8
21/12:30pm 25.6 25.6 21.6 78 2.7 NNE 24 39 13 21 1007.8 - 3.2
21/12:27pm 25.6 25.2 21.6 78 2.7 NE 26 43 14 23 1007.8 - 2.8
21/12:14pm 26.0 24.6 21.2 75 3.2 NE 30 46 16 25 1007.8 - 2.2
21/12:05pm 26.5 25.4 21.1 72 3.6 NE 28 46 15 25 1008.1 - 2.2
21/12:00pm 27.3 29.3 24.0 82 2.3 E 20 26 11 14 1007.8 1006.4 2.2
21/11:53am 27.1 27.0 24.2 84 2.0 ESE 32 43 17 23 1007.8 - 1.0
21/11:44am 30.9 30.3 23.4 64 5.2 SE 32 41 17 22 1008.1 - 0.0
21/11:30am 34.5 36.4 21.3 46 9.0 NNW 13 20 7 11 1008.0 - 0.0
21/11:00am 35.3 37.7 21.6 45 9.4 SW 11 19 6 10 1008.9 - 0.0
21/10:30am 35.7 38.8 22.1 45 9.4 SSE 9 13 5 7 1009.6 - 0.0
21/10:00am 34.2 38.0 22.7 51 8.0 N 7 11 4 6 1009.8 - 0.0
21/09:30am 33.6 36.8 22.3 51 7.8 SSE 9 15 5 8 1010.1 - 0.0
21/09:00am 33.5 36.8 22.5 52 7.6 E 9 13 5 7 1010.1 1008.7 0.0
21/08:30am 32.5 36.0 22.1 54 7.1 NE 7 11 4 6 1010.2 - 0.0
21/08:00am 31.7 35.6 22.5 58 6.3 WSW 6 9 3 5 1010.1 - 0.0
21/07:30am 30.8 35.3 23.0 63 5.4 E 4 11 2 6 1009.8 - 0.0
21/07:00am 30.8 35.2 22.8 62 5.5 SE 4 9 2 5 1009.7 - 0.0
21/06:30am 28.6 31.8 22.4 69 4.2 SW 9 11 5 6 1009.5 - 0.0
21/06:00am 27.1 30.8 22.5 76 3.1 SE 7 11 4 6 1009.5 1008.1 0.0
21/05:30am 26.6 30.7 22.9 80 2.5 ESE 6 9 3 5 1009.1 - 0.0
21/05:00am 26.4 30.5 22.9 81 2.4 S 6 9 3 5 1008.5 - 0.0
21/04:30am 26.3 31.1 22.9 81 2.3 SSE 2 7 1 4 1008.3 - 0.0
21/04:00am 26.4 30.3 23.0 81 2.3 ESE 7 9 4 5 1007.8 - 0.0
21/03:30am 26.6 30.3 23.2 81 2.3 E 9 13 5 7 1007.7 - 0.0
21/03:00am 27.4 31.3 22.9 76 3.1 S 7 9 4 5 1007.5 1006.1 0.0
21/02:30am 27.2 31.2 23.1 78 2.8 ENE 7 9 4 5 1007.7 - 0.0
21/02:00am 28.1 31.8 22.5 71 3.8 NNW 7 9 4 5 1007.5 - 0.0
21/01:30am 27.6 31.5 22.6 74 3.4 N 6 9 3 5 1007.4 - 0.0
21/01:00am 27.4 29.9 22.4 74 3.4 NW 13 17 7 9 1007.6 - 0.0
21/12:30am 27.6 30.4 22.3 73 3.6 SE 11 15 6 8 1008.1 - 0.0
21/12:00am 29.4 30.1 21.2 61 5.5 SE 19 28 10 15 1009.0 1007.6 0.0
 
Date/Time
WST
Temp
°C
App
Temp
°C
Dew
Point
Rel
Hum
%
Delta-T
°C
Wind Press
QNH
hPa
Press
MSL
hPa
Rain
since 9 am
mm
Dir
 
Spd
km/h
Gust
km/h
Spd
kts
Gust
kts
20/11:30pm 30.3 32.1 21.9 60 5.7 SSW 15 22 8 12 1009.1 - 0.0
20/11:00pm 30.8 36.2 23.3 64 5.2 CALM 0 0 0 0 1008.8 - 0.0
20/10:30pm 30.9 36.2 23.1 63 5.4 CALM 0 0 0 0 1009.1 - 0.0
20/10:00pm 31.5 35.7 21.0 53 7.1 CALM 0 0 0 0 1009.4 - 0.0
20/09:30pm 31.1 34.6 22.2 59 6.1 SW 7 11 4 6 1009.4 - 0.0
20/09:00pm 31.4 36.0 23.8 64 5.3 W 6 7 3 4 1009.4 1008.0 0.0
20/08:30pm 31.9 35.5 22.4 57 6.5 WSW 7 9 4 5 1008.8 - 0.0
20/08:00pm 32.5 35.5 22.0 54 7.2 SW 9 11 5 6 1008.6 - 0.0
20/07:30pm 32.5 35.8 21.8 53 7.3 S 7 9 4 5 1008.5 - 0.0
20/07:00pm 32.7 36.1 21.7 52 7.5 S 6 7 3 4 1008.3 - 0.0
20/06:30pm 32.9 37.3 22.8 55 7.0 SSE 4 7 2 4 1007.9 - 0.0
20/06:00pm 33.4 36.7 21.4 49 8.2 S 6 7 3 4 1007.3 1005.9 0.0
20/05:30pm 34.3 36.3 19.1 40 10.1 WSW 7 9 4 5 1006.8 - 0.0
20/05:00pm 34.2 35.8 19.1 41 10.0 W 9 13 5 7 1006.4 - 0.0
20/04:30pm 34.5 35.8 19.3 40 10.1 SW 11 13 6 7 1006.3 - 0.0
20/04:00pm 34.3 36.6 20.7 45 9.2 WSW 9 13 5 7 1006.1 - 0.0
20/03:30pm 34.4 37.0 20.5 44 9.4 W 7 11 4 6 1006.4 - 0.0
20/03:00pm 34.6 37.4 20.9 44 9.3 SSW 7 11 4 6 1006.6 1005.2 0.0
20/02:30pm 34.3 37.6 21.4 47 8.8 N 6 11 3 6 1006.9 - 0.0
20/02:00pm 34.0 36.9 21.0 46 8.8 WSW 7 9 4 5 1007.4 - 0.0
20/01:30pm 33.7 35.8 21.0 47 8.6 SSW 11 17 6 9 1008.0 - 0.0
20/01:00pm 33.3 35.5 21.2 49 8.2 SSW 11 19 6 10 1008.4 - 0.0
20/12:30pm 33.2 36.1 21.8 51 7.8 SSW 9 15 5 8 1009.0 - 0.0
20/12:00pm 32.9 35.1 21.9 52 7.5 SSW 13 19 7 10 1009.7 1008.3 0.0
20/11:30am 32.9 36.5 22.3 53 7.3 W 7 11 4 6 1010.4 - 0.0
20/11:00am 31.5 35.4 22.5 59 6.2 NE 6 11 3 6 1011.0 - 0.0
20/10:30am 30.7 34.5 22.7 62 5.5 SSW 7 11 4 6 1011.6 - 0.0
20/10:00am 30.0 34.1 22.9 65 4.9 W 6 9 3 5 1011.9 - 0.0
20/09:30am 29.7 33.4 23.2 68 4.5 NNW 9 13 5 7 1012.1 - 0.0
20/09:00am 29.5 33.1 23.0 68 4.5 N 9 11 5 6 1012.2 1010.9 1.8
20/08:30am 29.4 32.5 22.8 67 4.5 N 11 19 6 10 1012.4 - 1.8
20/08:00am 29.2 32.8 22.3 66 4.7 N 7 11 4 6 1012.2 - 1.6
20/07:30am 28.4 31.4 21.9 68 4.4 NW 9 13 5 7 1011.8 - 1.6
20/07:00am 27.3 32.2 24.3 84 2.1 W 6 9 3 5 1011.5 - 1.6
20/06:30am 26.0 31.7 23.8 88 1.5 CALM 0 6 0 3 1010.9 - 1.6
20/06:00am 25.4 29.8 23.8 91 1.1 W 7 9 4 5 1010.8 1009.4 1.6
20/05:30am 25.3 29.9 23.8 91 1.0 SSE 6 7 3 4 1010.4 - 1.6
20/05:00am 24.9 29.2 23.6 92 0.9 S 7 9 4 5 1009.8 - 1.6
20/04:30am 24.6 28.4 23.4 93 0.8 SE 9 11 5 6 1009.8 - 1.6
20/04:00am 25.0 29.0 23.8 93 0.8 SSE 9 11 5 6 1009.6 - 1.6
20/03:30am 25.0 29.3 23.7 92 0.9 S 7 11 4 6 1009.4 - 1.6
20/03:00am 25.1 29.1 23.8 92 0.9 S 9 13 5 7 1009.1 1007.7 1.6
20/02:52am 25.3 29.8 24.0 92 0.9 S 7 11 4 6 1009.1 - 1.6
20/02:34am 25.5 29.8 24.2 92 0.9 S 9 13 5 7 1009.4 - 1.6
20/02:30am 25.6 29.9 24.3 92 0.9 S 9 13 5 7 1009.6 - 1.6
20/02:00am 26.1 29.4 23.8 87 1.6 WSW 13 17 7 9 1010.3 - 1.6
20/01:30am 25.8 28.9 24.2 91 1.1 W 15 19 8 10 1011.1 - 1.6
20/01:00am 25.8 30.0 24.8 94 0.7 WNW 11 15 6 8 1011.9 - 1.6
20/12:30am 25.8 30.4 24.2 91 1.1 NW 7 9 4 5 1013.0 - 1.0
20/12:00am 25.8 27.6 23.6 88 1.5 N 20 24 11 13 1013.0 1011.6 1.0
 
Date/Time
WST
Temp
°C
App
Temp
°C
Dew
Point
Rel
Hum
%
Delta-T
°C
Wind Press
QNH
hPa
Press
MSL
hPa
Rain
since 9 am
mm
Dir
 
Spd
km/h
Gust
km/h
Spd
kts
Gust
kts
19/11:30pm 27.9 29.7 22.6 73 3.6 NNE 17 24 9 13 1013.6 - 0.0
19/11:00pm 27.8 28.9 22.4 72 3.7 NE 20 32 11 17 1013.8 - 0.0
19/10:30pm 28.5 29.1 22.8 71 3.9 NNE 24 35 13 19 1013.7 - 0.0
19/10:00pm 28.6 29.0 23.1 72 3.8 NE 26 44 14 24 1013.7 - 0.0
19/09:40pm 29.4 29.7 23.6 71 4.0 NE 28 46 15 25 1013.1 - 0.0
19/09:30pm 29.8 29.0 23.1 67 4.6 NE 32 44 17 24 1012.8 - 0.0
19/09:20pm 30.2 30.2 23.1 65 4.9 NNE 28 37 15 20 - - 0.0
19/09:00pm 30.4 33.4 21.2 58 6.2 NE 7 11 4 6 1011.8 1010.5 0.0
19/08:30pm 30.6 32.9 20.7 55 6.6 ENE 9 13 5 7 1011.5 - 0.0
19/08:00pm 30.7 33.3 20.5 54 6.8 S 7 11 4 6 1011.1 - 0.0
19/07:30pm 30.9 33.4 20.2 53 7.1 SSE 7 11 4 6 1010.6 - 0.0
19/07:00pm 31.4 32.6 19.8 50 7.7 SSE 13 22 7 12 1010.4 - 0.0
19/06:30pm 32.6 32.9 19.5 46 8.7 ESE 17 24 9 13 1010.2 - 0.0
19/06:00pm 33.5 31.7 19.5 43 9.3 ESE 28 41 15 22 1009.3 1007.9 0.0

Other Formats:

Comma delimited format used in spreadsheet applications
http://www.bom.gov.au/fwo/IDW60801/IDW60801.94217.axf

JavaScript Object Notation format (JSON) in row-major order
http://www.bom.gov.au/fwo/IDW60801/IDW60801.94217.json